COSMOS 2251 DEB, 35987

Orbit data source: Space-Track

COSMOS 2251 DEB, 35987 is space debris in LEO originally from a launch on Wed, 16 Jun 1993 UTC launched from the Plesetsk Missile And Space Complex (PKMTR). The debris from Iridium 33, an American commercial communications satellite, has been tracked extensively since its accidental collision with the defunct Russian satellite Cosmos 2251 in 2009. This event, occurring at high speed in low Earth orbit (LEO), generated thousands of pieces of space debris, significantly increasing the risk of further collisions. The Iridium 33 debris cloud has impacted space traffic management and orbital debris mitigation strategies, making it a subject of ongoing study in space situational awareness.

Loading next visibility...
Identifier
35987, 1993-036AWD
Orbit
LEO
Country
Flag of CISCIS
Related business
Manufacturer
Unknown
Mission
Spacecraft
Bus & Motor
Unknown
Mass
Unknown
Launch date (UTC)
1993-06-16 (33 years ago)
Launch vehicle
Unknown
Launch site
Plesetsk Missile And Space Complex (PKMTR)
Object type
Payload
Rocket body
Debris
Shape & HBR
Unknown shape, 0.1 m
Radar Cross Section
Small (<0.1 m²)

Expand to show TLE details & history
Last TLE update: 19 hours ago

TLE from 19 hours ago
0 COSMOS 2251 DEB
1 35987U 93036AWD 26120.83644260  .00002454  00000-0  71470-3 0  9994
2 35987  73.9979  67.5141 0049307 162.6181 197.6678 14.44019902630726
Epoch: 2026-04-30T20:04Z
TLE epoch observation values (Epoch: 2026-04-30T20:04:28.640Z)
Latitude
-0.00009°
Longitude
-92.38259°
Altitude
781.354 km
Speed
7.446 km/s
True Right ascension
04h 30m 03s
True Declination
0° 00' 00"
Sunlit
Object was in daylight at epoch
Visualization orbit readout
Latitude
Unknown
Longitude
Unknown
Altitude
Unknown
Speed
Unknown
Apparent Right ascension
Unknown
Apparent Declination
Unknown
Sunlit
N/A
Visualization observer readout
Local Sidereal Time
23:07:24
Azimuth
Unknown
Elevation
Unknown
Doppler factor
Unknown
Orbital elements
Apogee altitude
777.977 km
Perigee altitude
707.754 km
Semi-major axis
7,121.003 km
Eccentricity
0.00493
Inclination
73.9979°
RAAN
67.5141°
Arg. of periapsis
162.6181°
True anomaly
197.49732°
Mean anomaly
197.6678°
Eccentric anomaly
197.58246°
Mean motion
3.61186 °/min
Orbital period
99.67 mins
BSTAR
0.0007147
Loading maneuver chart data...
Computing Atmospheric mass density...

Documentation

Showing up to 5 results
|